Welcome to Des Moines Iowa Weather. I am an independent private personal weather station on the Northwest Side of Des Moines, Iowa. Just East of Windsor Heights and just West of Glendale . This site is also mobile friendly.

There are no active watches, warnings or advisories


Visit our other weather sites:

Historical Data

Weather Station Setup



Weather Underground History page Text

Daily Summary for November 7, 2017 Units:  English    Metric   Both
« Previous Day
Next Day »
Daily Weekly Monthly Yearly Custom
  High: Low: Average:
Temperature: 40.4 °F 26.4 °F 34 °F
Dew Point: 30.0 °F 23.0 °F 25.2 °F
Humidity: 86 % 56 % 71 %
Wind Speed: 6.0 mph 0.0 mph 1.2 mph
Wind Gust: 9.0 mph - -
Wind:- - NNE
Pressure: 30.45 in 30.32 in -
Precipitation: 0.00 in    
Historical Graphs
 
 
Tabular Data for November 7, 2017
Time Temperature Dew Point Pressure Wind Wind Speed Wind Gust Humidity Rainfall Rate (Hourly)
00:00 31.7 °F 25.0 °F 30.33 in Calm   4.0 mph 77 % 0.00 in
00:15 31.6 °F 25.0 °F 30.33 in East 1.0 mph 4.0 mph 77 % 0.00 in
00:30 31.4 °F 25.0 °F 30.33 in NNE 4.0 mph 5.0 mph 77 % 0.00 in
00:45 31.0 °F 25.0 °F 30.32 in NE 1.0 mph 4.0 mph 78 % 0.00 in
01:00 30.5 °F 25.0 °F 30.32 in Calm   5.0 mph 79 % 0.00 in
01:30 30.0 °F 25.0 °F 30.32 in Calm   4.0 mph 81 % 0.00 in
01:45 29.9 °F 25.0 °F 30.35 in Calm   5.0 mph 81 % 0.00 in
02:00 29.9 °F 25.0 °F 30.34 in Calm   3.0 mph 81 % 0.00 in
02:15 30.0 °F 25.0 °F 30.35 in Calm   4.0 mph 81 % 0.00 in
02:30 30.3 °F 25.0 °F 30.36 in NE 3.0 mph 5.0 mph 81 % 0.00 in
02:45 30.7 °F 26.0 °F 30.36 in North 3.0 mph 6.0 mph 81 % 0.00 in
03:00 31.2 °F 26.0 °F 30.36 in NE 5.0 mph 5.0 mph 80 % 0.00 in
03:15 31.6 °F 26.0 °F 30.37 in Calm   3.0 mph 79 % 0.00 in
03:30 31.9 °F 26.0 °F 30.37 in Calm   6.0 mph 79 % 0.00 in
03:45 32.3 °F 26.0 °F 30.37 in NE 1.0 mph 4.0 mph 78 % 0.00 in
04:00 32.5 °F 26.0 °F 30.37 in ENE 1.0 mph 3.0 mph 78 % 0.00 in
04:15 32.8 °F 26.0 °F 30.36 in NE 2.0 mph 6.0 mph 77 % 0.00 in
04:30 33.0 °F 26.0 °F 30.36 in North 3.0 mph 6.0 mph 76 % 0.00 in
04:45 33.3 °F 26.0 °F 30.36 in Calm   6.0 mph 74 % 0.00 in
05:00 33.4 °F 25.0 °F 30.37 in NNE 2.0 mph 4.0 mph 72 % 0.00 in
05:15 33.6 °F 25.0 °F 30.38 in North 1.0 mph 3.0 mph 71 % 0.00 in
05:30 33.8 °F 26.0 °F 30.37 in Calm   4.0 mph 72 % 0.00 in
05:45 33.7 °F 26.0 °F 30.37 in NE 3.0 mph 8.0 mph 73 % 0.00 in
06:00 33.2 °F 26.0 °F 30.36 in East 2.0 mph 5.0 mph 74 % 0.00 in
06:15 32.8 °F 26.0 °F 30.37 in Calm   5.0 mph 75 % 0.00 in
06:31 32.7 °F 26.0 °F 30.37 in Calm   6.0 mph 75 % 0.00 in
06:45 32.6 °F 26.0 °F 30.38 in NNE 4.0 mph 4.0 mph 75 % 0.00 in
07:01 32.6 °F 26.0 °F 30.39 in Calm   3.0 mph 75 % 0.00 in
07:16 32.8 °F 25.0 °F 30.40 in North 1.0 mph 4.0 mph 74 % 0.00 in
07:31 33.0 °F 25.0 °F 30.41 in Calm   5.0 mph 73 % 0.00 in
07:46 33.3 °F 25.0 °F 30.41 in Calm   5.0 mph 71 % 0.00 in
08:01 33.6 °F 25.0 °F 30.43 in Calm   4.0 mph 71 % 0.00 in
08:16 33.9 °F 25.0 °F 30.43 in NE 3.0 mph 6.0 mph 70 % 0.00 in
08:31 34.2 °F 25.0 °F 30.44 in Calm   7.0 mph 69 % 0.00 in
08:46 34.5 °F 25.0 °F 30.44 in ENE 3.0 mph 5.0 mph 67 % 0.00 in
09:01 34.7 °F 25.0 °F 30.44 in NNE 1.0 mph 4.0 mph 67 % 0.00 in
09:16 35.0 °F 25.0 °F 30.43 in NNE 3.0 mph 6.0 mph 66 % 0.00 in
09:31 35.6 °F 24.0 °F 30.44 in North 2.0 mph 8.0 mph 64 % 0.00 in
09:46 36.0 °F 24.0 °F 30.45 in NNE 2.0 mph 7.0 mph 63 % 0.00 in
10:01 36.4 °F 24.0 °F 30.44 in NNE 3.0 mph 7.0 mph 61 % 0.00 in
10:16 36.8 °F 24.0 °F 30.45 in ENE 3.0 mph 8.0 mph 60 % 0.00 in
10:31 37.3 °F 24.0 °F 30.45 in ENE 1.0 mph 7.0 mph 60 % 0.00 in
10:46 37.9 °F 26.0 °F 30.45 in East 2.0 mph 8.0 mph 62 % 0.00 in
11:01 38.3 °F 27.0 °F 30.45 in NNE 3.0 mph 8.0 mph 65 % 0.00 in
11:16 38.3 °F 29.0 °F 30.45 in North 2.0 mph 8.0 mph 68 % 0.00 in
11:31 38.2 °F 30.0 °F 30.44 in NNE 4.0 mph 9.0 mph 71 % 0.00 in
11:46 38.1 °F 29.0 °F 30.44 in NNE 4.0 mph 8.0 mph 70 % 0.00 in
12:01 38.0 °F 29.0 °F 30.43 in East 6.0 mph 9.0 mph 69 % 0.00 in
12:16 38.0 °F 27.0 °F 30.43 in NE 1.0 mph 8.0 mph 66 % 0.00 in
12:31 38.4 °F 27.0 °F 30.42 in ENE 3.0 mph 5.0 mph 65 % 0.00 in
12:46 38.7 °F 27.0 °F 30.42 in North 4.0 mph 6.0 mph 64 % 0.00 in
13:02 38.8 °F 27.0 °F 30.42 in North 3.0 mph 5.0 mph 64 % 0.00 in
13:17 39.2 °F 27.0 °F 30.42 in Calm   4.0 mph 63 % 0.00 in
13:32 39.1 °F 27.0 °F 30.41 in North 2.0 mph 6.0 mph 62 % 0.00 in
13:46 39.4 °F 27.0 °F 30.42 in North 2.0 mph 6.0 mph 62 % 0.00 in
14:02 39.6 °F 27.0 °F 30.41 in NE 1.0 mph 5.0 mph 61 % 0.00 in
14:17 40.1 °F 27.0 °F 30.41 in North 3.0 mph 5.0 mph 61 % 0.00 in
14:32 40.4 °F 27.0 °F 30.41 in Calm   7.0 mph 60 % 0.00 in
14:47 40.2 °F 26.0 °F 30.40 in Calm   6.0 mph 58 % 0.00 in
15:02 40.0 °F 26.0 °F 30.40 in North 1.0 mph 6.0 mph 58 % 0.00 in
15:17 40.2 °F 26.0 °F 30.40 in North 2.0 mph 5.0 mph 58 % 0.00 in
15:32 40.2 °F 26.0 °F 30.40 in North 2.0 mph 4.0 mph 58 % 0.00 in
15:47 40.3 °F 26.0 °F 30.40 in North 4.0 mph 5.0 mph 57 % 0.00 in
16:02 40.2 °F 26.0 °F 30.40 in NE 1.0 mph 4.0 mph 57 % 0.00 in
16:17 40.1 °F 25.0 °F 30.40 in NNE 1.0 mph 3.0 mph 56 % 0.00 in
16:32 39.8 °F 25.0 °F 30.40 in Calm   2.0 mph 56 % 0.00 in
16:47 39.7 °F 25.0 °F 30.41 in Calm   2.0 mph 56 % 0.00 in
17:02 39.4 °F 25.0 °F 30.41 in Calm   2.0 mph 57 % 0.00 in
17:17 38.6 °F 25.0 °F 30.41 in Calm     58 % 0.00 in
17:32 37.3 °F 24.0 °F 30.41 in Calm     60 % 0.00 in
17:47 36.2 °F 24.0 °F 30.41 in Calm     62 % 0.00 in
18:02 35.3 °F 24.0 °F 30.41 in Calm     64 % 0.00 in
18:17 34.3 °F 24.0 °F 30.41 in Calm     66 % 0.00 in
18:32 33.6 °F 24.0 °F 30.41 in Calm     67 % 0.00 in
18:47 32.9 °F 24.0 °F 30.41 in Calm     69 % 0.00 in
19:02 32.3 °F 24.0 °F 30.42 in Calm     70 % 0.00 in
19:17 31.7 °F 23.0 °F 30.42 in Calm     71 % 0.00 in
19:32 31.1 °F 23.0 °F 30.41 in Calm     72 % 0.00 in
19:47 30.5 °F 23.0 °F 30.41 in Calm     74 % 0.00 in
20:02 30.0 °F 23.0 °F 30.41 in Calm     76 % 0.00 in
20:17 29.7 °F 24.0 °F 30.41 in Calm     78 % 0.00 in
20:32 29.4 °F 23.0 °F 30.41 in Calm     78 % 0.00 in
20:47 29.1 °F 23.0 °F 30.42 in Calm     79 % 0.00 in
21:02 28.9 °F 23.0 °F 30.42 in Calm     80 % 0.00 in
21:18 28.7 °F 24.0 °F 30.42 in Calm     81 % 0.00 in
21:32 28.4 °F 24.0 °F 30.43 in Calm     82 % 0.00 in
21:47 28.2 °F 23.0 °F 30.43 in Calm     82 % 0.00 in
22:17 27.6 °F 23.0 °F 30.43 in Calm     83 % 0.00 in
22:33 27.4 °F 23.0 °F 30.42 in Calm     83 % 0.00 in
22:51 27.2 °F 23.0 °F 30.42 in Calm     84 % 0.00 in
23:02 27.0 °F 23.0 °F 30.42 in Calm     84 % 0.00 in
23:17 26.8 °F 23.0 °F 30.42 in Calm     85 % 0.00 in
23:33 26.6 °F 23.0 °F 30.42 in Calm     85 % 0.00 in
23:47 26.4 °F 23.0 °F 30.42 in Calm     86 % 0.00 in
Des Moines Weather and Climate
Compliments of Weather Underground - 3 mb

Script developed by  Jim McMurry - jmcmurry@mwt.net Adapted for the template by  Wim van der Kuil - Leuven-Template.eu

You find our weather info also at:

Weather Underground

Equipment we use:

Weather-station
Davis VP2 Plus

Weather-program
Davis Weatherlink.Com

Weather-server
iMac (Retina 4K, 21.5-inch, Late 2015)

Provider
Hostmonster.com

Davis VP2 Plus

Davis Weatherlink.Com

iMac (Retina 4K, 21.5-inch, Late 2015)

Hostmonster.com